Location: Monguilhem
(43.8550°N, 0.1800°W)
Time: 21:22:31
(UTC+00:00)

Daily predictions for brighter satellites

Satellite Brightness Start Highest point End
(mag) Time Altitude Azimuth Time Altitude Azimuth Time Altitude Azimuth
PSLV R/B 4.5 17:52:55 10° ESE 17:56:15 24° ENE 17:59:34 10° NNE
Atlas Centaur 2 4.3 17:50:35 10° SW 17:57:00 27° S 18:02:48 10° ESE
CZ-2D R/B 2.8 17:54:26 10° S 17:57:29 77° WSW 18:00:33 10° NNW
COSMO-SKYMED 1 3.2 17:54:07 10° NNE 17:57:49 31° E 18:01:28 10° SSE
Cosmos 2221 Rocket 4.1 17:54:05 10° SSE 17:58:12 38° E 18:02:23 10° NNE
Okean 1 Rocket 3.5 17:54:15 10° N 17:58:24 38° ENE 18:02:27 10° SE
USA 234 3.4 17:52:00 10° SE 17:58:34 87° SW 18:05:10 10° NW
Meteor 1-11 4.2 17:53:25 10° S 17:59:00 75° E 18:04:43 10° NNE
ARIANE 5 R/B 2.8 17:54:25 10° S 17:59:31 77° WSW 18:04:38 10° NNW
Okean 2 Rocket 3.3 17:56:30 10° N 18:00:46 47° ENE 18:04:58 10° SSE
Cosmos 1378 Rocket 3.8 18:01:12 10° SSW 18:05:30 73° W 18:09:49 10° N
BREEZE-M (TANK) 2.7 18:03:56 10° NW 18:06:16 44° NNE 18:11:28 10° E
Radarsat Rocket 4.2 18:01:40 10° SE 18:07:14 48° ENE 18:13:12 10° N
CZ-2D R/B 3.6 18:05:39 10° SE 18:09:20 44° ENE 18:13:09 10° N
NOSS 3-3 (A) 3.7 18:04:42 10° SW 18:09:46 84° NW 18:15:50 10° NE
BREEZE-M DEB (TANK) 3.5 18:08:42 10° WNW 18:12:24 64° SSW 18:17:09 10° SE
Sich 1 Rocket 3.7 18:09:30 10° N 18:13:59 54° E 18:18:26 10° SSE
Cosmos 2297 Rocket 2.4 18:10:07 10° S 18:15:35 52° ESE 18:21:05 10° NE
Tiangong -0.5 18:14:02 10° SSW 18:16:39 24° SSE 18:18:49 13° ESE
GP-B 3.8 18:13:13 10° S 18:17:31 58° W 18:21:50 10° N
Cosmos 1025 Rocket 3.0 18:13:57 10° S 18:18:14 83° E 18:22:35 10° N
Meteor 2-1 Rocket 4.3 18:12:42 10° N 18:18:33 73° E 18:24:26 10° SSE
SKYMED 2 3.7 18:16:31 10° N 18:20:53 81° WNW 18:25:12 10° SSW
Resurs 01 Rocket 2.2 18:17:43 10° SE 18:21:40 34° ENE 18:25:40 10° N
Cosmos 1356 Rocket 3.6 18:19:04 10° NNW 18:23:00 70° W 18:26:57 10° S
Cosmos 2346 Rocket 4.5 18:16:57 10° S 18:23:09 71° E 18:29:24 10° NNE
Resurs 1-3 3.5 18:20:10 10° SSE 18:24:28 84° ENE 18:28:47 10° N
Cosmos 2344 4.4 18:21:09 10° SSE 18:27:51 28° ESE 18:32:55 13° ENE
NOSS 3-4 (A) 4.2 18:24:16 10° NNW 18:30:41 45° NE 18:37:51 11° ESE
NOSS 3-4 (C) 4.2 18:24:33 10° NNW 18:30:58 45° NE 18:38:02 11° ESE
Helios 1A Rocket 3.5 18:39:28 23° ESE 18:39:28 23° ESE 18:41:47 10° SSE
Cosmos 1447 Rocket 4.4 18:35:36 10° S 18:41:43 88° E 18:47:54 10° N
Lacrosse 5 rocket 3.5 18:40:29 10° NW 18:42:27 14° NNW 18:44:27 10° NNE
Cosmos 2263 Rocket 3.2 18:41:32 10° SSE 18:45:53 23° E 18:46:41 22° E
Cosmos 1980 3.6 18:40:52 10° NNW 18:46:33 74° ENE 18:52:10 10° SSE
COSMOS 2428 3.7 18:41:55 10° NW 18:47:27 51° WSW 18:52:56 10° S
Meteor 1-27 4.3 18:41:53 10° N 18:47:39 63° ENE 18:53:24 10° SSE
SJ-6B 2.8 18:46:44 19° SE 18:48:47 39° ENE 18:52:01 10° N
Cosmos 2237 Rocket 2.1 18:46:14 10° NNW 18:51:57 76° ENE 18:57:38 10° SSE
CARTOSAT-1 3.5 18:49:06 10° S 18:53:17 83° WSW 18:57:31 10° NNW
Cosmos 1891 Rocket 4.5 18:47:19 10° N 18:53:47 79° E 19:00:15 10° SSE
Cosmos 2285 Rocket 4.1 18:50:04 10° NNW 18:56:31 82° WSW 19:02:53 10° SSE
Cosmos 44 Rocket 3.2 18:53:55 10° SSW 18:58:46 71° ESE 19:02:15 20° NE
USA 267 4.4 18:59:48 12° NE 19:05:02 35° NNW 19:10:48 10° W
BREEZE-M DEB (TANK) 4.1 19:05:04 10° WNW 19:09:05 83° NNE 19:16:43 22° ESE
Cosmos 1513 Rocket 4.5 19:02:46 10° N 19:09:05 90° NNW 19:15:28 10° S
Cosmos 2034 Rocket 4.2 19:04:10 10° N 19:10:02 43° ENE 19:13:44 21° SE
Aureole 3 Rocket 3.8 19:06:30 10° NNW 19:10:06 42° W 19:13:06 10° SSW
Cosmos 1072 Rocket 4.4 19:05:13 10° N 19:11:28 72° E 19:17:35 10° SSE
Cosmos 2227 Rocket 2.1 19:09:09 10° SSW 19:14:43 67° ESE 19:18:49 19° NNE
SL-16 R/B 2.7 19:11:47 10° N 19:17:00 36° NE 19:17:18 36° ENE
Cosmos 1570 Rocket 4.5 19:12:18 10° SSW 19:17:32 62° WNW 19:22:45 10° NNE
Cosmos 1975 Rocket 2.9 19:16:16 10° S 19:20:36 88° W 19:24:58 10° N
Cosmos 1455 Rocket 3.7 19:17:38 10° NNW 19:21:50 53° W 19:26:00 10° S
Cosmos 1346 Rocket 4.4 19:24:36 10° S 19:25:52 21° S 19:25:52 21° S
CZ-4C R/B 4.0 19:27:09 10° W 19:30:41 21° NNW 19:34:54 10° NNE
DNEPR-1 R/B 4.0 19:28:17 10° NNW 19:33:14 69° NE 19:34:11 57° ESE
Cosmos 2228 3.1 19:30:36 10° NNW 19:34:46 70° W 19:37:09 25° S
Gbstr 26 Del rocket 4.3 19:29:19 10° SSW 19:35:58 57° SE 19:37:44 47° E
CZ-4B R/B 4.4 19:40:18 26° NNE 19:40:18 26° NNE 19:42:56 10° N
Cosmos 783 Rocket 4.3 19:32:53 10° S 19:38:07 70° ESE 19:38:28 67° ENE
Cosmos 1464 Rocket 4.1 19:32:11 10° N 19:38:34 78° W 19:44:50 10° S
SPOT 5 2.8 19:39:23 69° NE 19:39:23 69° NE 19:44:11 10° N
CZ-4B DEB 4.3 19:43:20 56° NE 19:43:20 56° NE 19:48:10 10° N
Atlas Centaur 2 4.0 19:39:00 10° WSW 19:44:48 25° SSW 19:46:52 21° SSE
BREEZE M DEB (TANK) 4.5 19:33:32 10° SSW 19:49:08 42° SSE 19:49:51 41° SE
CSL-04 Debris 4.0 19:49:10 71° SE 19:49:45 83° ENE 19:55:13 10° NNW
Tiangong 0.6 19:50:10 10° WSW 19:51:08 18° WSW 19:51:08 18° WSW
CSL-04 Rocket 3.5 19:53:07 67° S 19:53:51 85° WSW 19:59:09 10° NNW
Resurs 01 Rocket 3.9 19:54:34 10° SSW 19:58:05 23° W 20:01:38 10° NW
Cosmos 2297 Rocket 4.1 19:55:09 10° WSW 19:59:54 27° NW 20:04:40 10° N
BREEZE-M DEB (TANK) 4.2 19:51:26 10° WSW 20:07:28 90° S 20:07:59 77° ENE
Feng Yun 1-1 Rocket 4.5 20:12:50 66° NNW 20:12:50 66° NNW 20:17:52 10° NNW
Terra 4.4 20:30:15 11° N 20:30:15 11° N 20:30:30 10° N
Cosmos 2263 Rocket 2.9 20:23:47 10° SW 20:28:28 50° W 20:28:28 50° W
Cosmos 2344 3.8 20:33:59 10° SW 20:41:41 59° NW 20:43:00 52° N
BREEZE-M DEB (TANK) 4.5 20:53:07 10° WSW 20:58:24 77° NNW 21:23:51 10° ENE
Cosmos 2227 Rocket 4.3 20:54:55 10° W 20:59:16 22° NW 21:00:43 20° NNW
SL-16 R/B 3.9 20:55:56 10° NW 20:59:12 29° WNW 20:59:12 29° WNW
